This is the latest recevied weather packets stored in our database for station/object SR8WXL-13. If no packets are shown the sender has not sent any weather packets the latest 10 day(s).
| Time | Temp. | Humidity | Pressure | Rain* | Wind** | Luminosity | Snow |
|---|---|---|---|---|---|---|---|
| 1788376174 | 16.11° C | 81% | 1035 hPa | 0 mm | - | - | - |
| 1788375273 | 16.11° C | 79% | 1034.9 hPa | 0 mm | - | - | - |
| 1788374404 | 17.22° C | 78% | 1035 hPa | 0 mm | - | - | - |
| 1788373645 | 17.22° C | 77% | 1034.8 hPa | 0 mm | - | - | - |
| 1788372768 | 17.78° C | 76% | 1034.7 hPa | 0 mm | - | - | - |
| 1788371959 | 17.78° C | 73% | 1034.9 hPa | 0 mm | - | - | - |
| 1788371133 | 17.78° C | 71% | 1034.7 hPa | 0 mm | - | - | - |
| 1788370280 | 17.78° C | 70% | 1034.4 hPa | 0 mm | - | - | - |
| 1788369454 | 17.78° C | 77% | 1034.4 hPa | 0 mm | - | - | - |
| 1788368617 | 18.89° C | 73% | 1034.3 hPa | 0 mm | - | - | - |
| 1788367785 | 18.89° C | 71% | 1034.3 hPa | 0 mm | - | - | - |
| 1788366948 | 20° C | 66% | 1033.9 hPa | 0 mm | - | - | - |
| 1788365924 | 20° C | 63% | 1033.8 hPa | 0 mm | - | - | - |
| 1788365194 | 21.11° C | 61% | 1034.2 hPa | 0 mm | - | - | - |
| 1788364413 | 21.11° C | 57% | 1034.1 hPa | 0 mm | - | - | - |
| 1788363676 | 22.22° C | 56% | 1034.2 hPa | 0 mm | - | - | - |
| 1788362823 | 22.22° C | 54% | 1034.2 hPa | 0 mm | - | - | - |
| 1788362079 | 22.22° C | 53% | 1034.1 hPa | 0 mm | - | - | - |
| 1788361205 | 22.78° C | 50% | 1034.2 hPa | 0 mm | - | - | - |
| 1788360309 | 23.89° C | 49% | 1034.4 hPa | 0 mm | - | - | - |
| 1788359470 | 23.89° C | 45% | 1034.3 hPa | 0 mm | - | - | - |
| 1788358658 | 23.89° C | 46% | 1034.3 hPa | 0 mm | - | - | - |
| 1788357816 | 25° C | 44% | 1034.4 hPa | 0 mm | - | - | - |
| 1788356979 | 23.89° C | 47% | 1034.5 hPa | 0 mm | - | - | - |
| 1788356224 | 23.89° C | 47% | 1034.7 hPa | 0 mm | - | - | - |
* Rain latest hour (hover to see other rain measurements)
** Current wind speed in m/s (hover to see current wind gust speed)